Shenandoah, IA

11:56 AM CDT on April 23, 2017 (GMT -0500)
Shenandoah Municipal

Weather History for KSDA - April, 2014

Change the Weather History Date:

Sunday, April 27, 2014

  Actual Average Record
Temperature  
Mean Temperature 64 °F -  
Max Temperature 68 °F 71 °F 94 °F (1989)
Min Temperature 59 °F 47 °F 26 °F (1950)
Degree Days  
Heating Degree Days 2    
Growing Degree Days 14 (Base 50)    
Moisture  
Dew Point 56 °F    
Average Humidity 77    
Maximum Humidity 100    
Minimum Humidity 56    
Precipitation  
Precipitation 0.00 in - - ()
Sea Level Pressure  
Sea Level Pressure 29.41 in    
Wind  
Wind Speed 17 mph (ESE)    
Max Wind Speed 25 mph    
Max Gust Speed 58 mph    
Visibility 9 miles    
Events Rain    
Averages and records for this station are not official NWS values.
T = Trace of Precipitation, MM = Missing Value Source: NWS Daily Summary

Daily Weather History Graph

Daily Weather History Graph

Search for Another Location

Airport or City:

Trip Planner

Search our weather history database for the weather conditions in past years. The results will help you decide how hot, cold, wet, or windy it might be!

Date:

Astronomy

Apr. 27, 2014 Rise Set
Actual Time 6:25 AM CDT 8:13 PM CDT
Civil Twilight 5:56 AM CDT 8:43 PM CDT
Nautical Twilight 5:20 AM CDT 9:18 PM CDT
Astronomical Twilight 4:42 AM CDT 9:57 PM CDT
Moon 5:27 AM CDT (4/27) 6:48 PM CDT (4/27)
Length of Visible Light 14h 47m
Length of Day
13h 48m
Waning Crescent, 3% of the Moon is Illuminated
Apr 27
Waning Crescent
Apr 29
New
May 6
First Quarter
May 14
Full
May 21
Last Quarter

Hourly Weather History & Observations

Time (CDT) Temp. Dew Point Humidity Pressure Visibility Wind Dir Wind Speed Gust Speed Precip Events Conditions
12:15 AM 66.2 °F 51.8 °F 60% 29.54 in 10.0 mi SE 19.6 mph 25.3 mph N/A   Clear
12:35 AM 66.2 °F 50.0 °F 56% 29.54 in 10.0 mi ESE 19.6 mph 27.6 mph N/A   Clear
12:55 AM 66.2 °F 50.0 °F 56% 29.53 in 10.0 mi SE 18.4 mph 26.5 mph N/A   Clear
1:15 AM 66.2 °F 50.0 °F 56% 29.53 in 10.0 mi SE 18.4 mph 25.3 mph N/A   Clear
1:35 AM 66.2 °F 50.0 °F 56% 29.53 in 10.0 mi SE 18.4 mph 24.2 mph N/A   Clear
1:55 AM 64.4 °F 50.0 °F 59% 29.52 in 10.0 mi ESE 16.1 mph 25.3 mph N/A   Clear
2:15 AM 64.4 °F 50.0 °F 59% 29.51 in 10.0 mi SE 18.4 mph 25.3 mph N/A   Clear
2:35 AM 64.4 °F 50.0 °F 59% 29.51 in 10.0 mi ESE 16.1 mph 23.0 mph N/A   Clear
2:55 AM 64.4 °F 50.0 °F 59% 29.50 in 10.0 mi ESE 15.0 mph 21.9 mph N/A   Clear
3:15 AM 64.4 °F 50.0 °F 59% 29.50 in 10.0 mi ESE 15.0 mph - N/A   Clear
3:35 AM 64.4 °F 50.0 °F 59% 29.49 in 10.0 mi ESE 15.0 mph 23.0 mph N/A   Partly Cloudy
3:55 AM 64.4 °F 50.0 °F 59% 29.48 in 10.0 mi ESE 16.1 mph - N/A   Clear
4:15 AM 64.4 °F 50.0 °F 59% 29.49 in 10.0 mi ESE 15.0 mph - N/A   Scattered Clouds
4:35 AM 66.2 °F 51.8 °F 60% 29.49 in 10.0 mi ESE 13.8 mph - N/A   Overcast
4:55 AM 66.2 °F 51.8 °F 60% 29.48 in 10.0 mi ESE 16.1 mph - N/A   Overcast
5:15 AM 66.2 °F 51.8 °F 60% 29.48 in 10.0 mi ESE 19.6 mph 26.5 mph N/A   Overcast
5:35 AM 66.2 °F 51.8 °F 60% 29.47 in 10.0 mi ESE 17.3 mph 24.2 mph N/A   Overcast
5:55 AM 66.2 °F 51.8 °F 60% 29.46 in 10.0 mi ESE 18.4 mph 25.3 mph N/A   Mostly Cloudy
6:15 AM 66.2 °F 51.8 °F 60% 29.46 in 10.0 mi ESE 18.4 mph 25.3 mph N/A   Mostly Cloudy
6:35 AM 66.2 °F 53.6 °F 64% 29.48 in 10.0 mi SE 17.3 mph 24.2 mph N/A   Mostly Cloudy
6:55 AM 66.2 °F 53.6 °F 64% 29.48 in 10.0 mi SE 13.8 mph 23.0 mph N/A   Overcast
7:15 AM 66.2 °F 53.6 °F 64% 29.48 in 10.0 mi ESE 13.8 mph 19.6 mph N/A   Overcast
7:35 AM 64.4 °F 55.4 °F 73% 29.47 in 9.0 mi ESE 12.7 mph - N/A   Overcast
7:55 AM 64.4 °F 57.2 °F 77% 29.43 in 8.0 mi East 10.4 mph - N/A   Overcast
8:15 AM 64.4 °F 57.2 °F 77% 29.45 in 10.0 mi SE 12.7 mph - N/A   Mostly Cloudy
8:35 AM 64.4 °F 59.0 °F 83% 29.46 in 10.0 mi SE 11.5 mph - N/A   Overcast
8:55 AM 66.2 °F 59.0 °F 78% 29.46 in 10.0 mi SE 9.2 mph - N/A   Overcast
9:15 AM 66.2 °F 60.8 °F 83% 29.46 in 10.0 mi SE 10.4 mph - N/A   Overcast
9:35 AM 66.2 °F 60.8 °F 83% 29.44 in 7.0 mi SE 11.5 mph 19.6 mph N/A Rain Light Rain
9:55 AM 66.2 °F 60.8 °F 83% 29.40 in 10.0 mi East 12.7 mph - N/A   Mostly Cloudy
10:15 AM 66.2 °F 60.8 °F 83% 29.42 in 10.0 mi ESE 17.3 mph - N/A   Overcast
10:35 AM 66.2 °F 60.8 °F 83% 29.41 in 10.0 mi ESE 18.4 mph - N/A   Overcast
10:55 AM 66.2 °F 59.0 °F 78% 29.41 in 10.0 mi ESE 18.4 mph - N/A   Overcast
11:15 AM 60.8 °F 59.0 °F 94% 29.44 in 1.0 mi WNW 17.3 mph 57.5 mph N/A Rain Heavy Rain
11:35 AM 60.8 °F 57.2 °F 88% 29.47 in 0.8 mi Variable 5.8 mph 15.0 mph N/A Rain Heavy Rain
11:55 AM 59.0 °F 57.2 °F 94% 29.47 in 3.0 mi WSW 9.2 mph 19.6 mph N/A Rain Light Rain
12:35 PM 59.0 °F 59.0 °F 100% 29.47 in 5.0 mi Calm Calm - N/A Rain Light Rain
12:55 PM 59.0 °F 59.0 °F 100% 29.49 in 4.0 mi East 8.1 mph - N/A Rain Light Rain
1:15 PM 59.0 °F 59.0 °F 100% 29.41 in 3.0 mi NE 13.8 mph - N/A Rain Rain
1:35 PM 59.0 °F 57.2 °F 94% 29.35 in 7.0 mi ENE 17.3 mph 23.0 mph N/A Rain Light Rain
1:55 PM 59.0 °F 57.2 °F 94% 29.33 in 8.0 mi ENE 18.4 mph - N/A Rain Light Rain
2:15 PM 59.0 °F 57.2 °F 94% 29.34 in 10.0 mi East 18.4 mph - N/A   Scattered Clouds
2:35 PM 60.8 °F 57.2 °F 88% 29.30 in 10.0 mi East 18.4 mph 26.5 mph N/A   Scattered Clouds
2:55 PM 60.8 °F 55.4 °F 82% 29.28 in 10.0 mi ESE 15.0 mph 24.2 mph N/A   Partly Cloudy
3:15 PM 62.6 °F 57.2 °F 82% 29.30 in 10.0 mi SE 13.8 mph - N/A   Clear
3:35 PM 62.6 °F 57.2 °F 82% 29.32 in 10.0 mi ESE 19.6 mph 28.8 mph N/A   Clear
3:55 PM 64.4 °F 59.0 °F 83% 29.32 in 10.0 mi ESE 15.0 mph 25.3 mph N/A   Clear
4:15 PM 64.4 °F 59.0 °F 83% 29.31 in 10.0 mi ESE 17.3 mph - N/A   Clear
4:35 PM 68.0 °F 60.8 °F 78% 29.30 in 10.0 mi SE 21.9 mph - N/A   Clear
5:15 PM 68.0 °F 59.0 °F 73% 29.31 in 10.0 mi SE 25.3 mph 32.2 mph N/A   Clear
5:35 PM 68.0 °F 59.0 °F 73% 29.32 in 10.0 mi SE 23.0 mph 34.5 mph N/A   Clear
5:55 PM 66.2 °F 59.0 °F 78% 29.32 in 10.0 mi SE 24.2 mph 31.1 mph N/A   Partly Cloudy
6:15 PM 66.2 °F 59.0 °F 78% 29.32 in 10.0 mi SE 24.2 mph - N/A   Partly Cloudy
6:35 PM 66.2 °F 59.0 °F 78% 29.32 in 10.0 mi SE 20.7 mph 28.8 mph N/A   Partly Cloudy
6:55 PM 66.2 °F 59.0 °F 78% 29.32 in 10.0 mi SE 19.6 mph 29.9 mph N/A   Clear
7:15 PM 66.2 °F 59.0 °F 78% 29.32 in 10.0 mi SE 17.3 mph 26.5 mph N/A   Partly Cloudy
7:35 PM 64.4 °F 59.0 °F 83% 29.33 in 10.0 mi ESE 19.6 mph 26.5 mph N/A   Mostly Cloudy
7:55 PM 62.6 °F 59.0 °F 88% 29.34 in 10.0 mi ESE 19.6 mph - N/A   Mostly Cloudy
8:15 PM 62.6 °F 59.0 °F 88% 29.35 in 10.0 mi ESE 20.7 mph 28.8 mph N/A   Mostly Cloudy
8:35 PM 62.6 °F 59.0 °F 88% 29.35 in 10.0 mi SE 21.9 mph 32.2 mph N/A   Mostly Cloudy
8:55 PM 62.6 °F 59.0 °F 88% 29.34 in 10.0 mi SE 18.4 mph 27.6 mph N/A   Scattered Clouds
9:15 PM 62.6 °F 59.0 °F 88% 29.34 in 10.0 mi ESE 19.6 mph 25.3 mph N/A   Clear
9:35 PM 62.6 °F 59.0 °F 88% 29.34 in 10.0 mi ESE 18.4 mph 26.5 mph N/A   Clear
9:55 PM 62.6 °F 59.0 °F 88% 29.34 in 10.0 mi SE 19.6 mph 28.8 mph N/A   Clear
10:15 PM 62.6 °F 59.0 °F 88% 29.33 in 10.0 mi SE 20.7 mph - N/A   Clear
10:35 PM 62.6 °F 59.0 °F 88% 29.33 in 10.0 mi SE 20.7 mph 27.6 mph N/A   Clear
10:55 PM 62.6 °F 57.2 °F 82% 29.32 in 10.0 mi SE 19.6 mph 25.3 mph N/A   Clear
11:15 PM 62.6 °F 57.2 °F 82% 29.32 in 10.0 mi SE 17.3 mph 26.5 mph N/A   Clear
11:35 PM 62.6 °F 57.2 °F 82% 29.32 in 10.0 mi SE 17.3 mph - N/A   Clear
11:55 PM 62.6 °F 57.2 °F 82% 29.32 in 10.0 mi SE 18.4 mph - N/A   Clear